Regional Weather Roundup
Issued by NWS

Home | Current Version | Previous Version | Graphics & Text | Print | Product List | Glossary On
Versions: 1 2 3 4 5 6 7 8 9 10 11 12 13 14 15 16 17 18 19 20 21 22 23 24 25 26 27 28 29 30 31 32 33 34 35 36 37 38 39 40 41 42 43 44 45 46 47 48 49 50
000
ASUS43 KLSX 181357
RWRMO

WEATHER SUMMARY FOR MISSOURI
NATIONAL WEATHER SERVICE SPRINGFIELD MO
800 AM CST SAT NOV 18 2017

NOTE: "FAIR" INDICATES FEW OR NO CLOUDS BELOW 12,000 FEET WITH NO
       SIGNIFICANT WEATHER AND/OR OBSTRUCTIONS TO VISIBILITY.
       CURRENT SKY AND/OR WEATHER CONDITIONS ARE NOT AVAILABLE FOR
       CHILLICOTHE AND FARMINGTON.

MOZ001>031-035>038-043-044-053-054-181500-
...NORTHERN AND WESTERN MISSOURI...

CITY           SKY/WX    TMP DP  RH WIND       PRES   REMARKS
KANSAS CTY INT CLOUDY    42  40  92 N24G35    29.67R
LEE`S SUMMIT   CLOUDY    45  43  93 N21G32    29.66R
ST JOSEPH      LGT RAIN  42  40  92 N17       29.73R FOG
CHILLICOTHE      N/A     43  41  93 NW16G25   29.67R

$$
MOZ066>068-077>081-088>096-101>105-181500-
...SOUTHWEST MISSOURI...

CITY           SKY/WX    TMP DP  RH WIND       PRES   REMARKS
SPRINGFIELD    MOSUNNY   58  53  84 W21G32    29.52R
JOPLIN         CLOUDY    53  53 100 NW24G38   29.62R
BRANSON        PTSUNNY   72  59  64 SW13G26   29.52R

$$
MOZ032>034-039>042-045>050-055>058-069>072-181500-
...CENTRAL MISSOURI...

CITY           SKY/WX    TMP DP  RH WIND       PRES   REMARKS
COLUMBIA       NOT AVBL
JEFFERSON CITY CLOUDY    64  59  83 NW18G29   29.39R
ROLLA          CLOUDY    68  61  78 SW15G25   29.39R
SEDALIA        LGT RAIN  48  47  96 N24G40    29.56R FOG
WARRENSBURG    LGT RAIN  45  43  93 N20G25    29.60R

$$
MOZ051-052-059>065-181500-
...EAST CENTRAL MISSOURI...

CITY           SKY/WX    TMP DP  RH WIND       PRES   REMARKS
ST LOUIS INTL  NOT AVBL

$$
MOZ072>076-082>087-097>100-106>115-181500-
...SOUTH CENTRAL AND SOUTHEAST MISSOURI...

CITY           SKY/WX    TMP DP  RH WIND       PRES   REMARKS
CAPE GIRARDEAU LGT RAIN  65  60  84 S16G24    29.52R
POPLAR BLUFF   CLOUDY    68  63  84 SW21G32   29.49R
WEST PLAINS    CLOUDY    69  61  75 SW14G21   29.49R

$$



USA.gov is the U.S. government's official web portal to all federal, state and local government web resources and services.